Location: *
(51.1248°S, 108.4023°W)
Time: 09:24:24
(UTC+00:00)

N. Korean satellite - Pass Details

Date: 29 September 2021
Orbit: 450 x 495 km, 97.3° (Epoch: 19 October)

Event Time Altitude Azimuth Distance (km) Brightness Sun altitude
Rises 09:56:31 0° 71° (ENE) 2,602 10.7 -25.0°
Reaches altitude 10° 10:00:06 10° 108° (ESE) 1,722 10.2 -24.6°
Maximum altitude 10:01:03 11° 123° (ESE) 1,670 10.3 -24.4°
Drops below altitude 10° 10:02:01 10° 138° (SE) 1,723 10.4 -24.3°
Sets 10:05:36 0° 175° (S) 2,607 10.9 -23.9°
